DW6869 Royal Palm Beach FL US current weather conditions

sailwx.info

Wind from 108 at 2 knots gusting 6

Air temperature 33.3° C
Dewpoint 24.8° C

Last reported at 2019-Jul-22 16:02 UTC.
Time now 2019-Jul-22 16:23 UTC

Location: N 26°48' W 080°18'.
View on Google Maps.

See reports from other nearby stations

  
Tides and Currents Weather Stations Pressure Air Temp Water Temp Dewpoint Dewpoint Depression Visibility Wind Speed Wind Dir Waves Ship Positions
date/time (UTC)wind fromknots sea level pressurealtimeterstation pressurevisibilityair tempwater tempwave heightnotes
2019-Jul-22 16:07 118 2 gusting 6 33.3
2019-Jul-22 16:02 108 2 gusting 6 33.3
2019-Jul-22 15:57 184 2 gusting 7 33.3
2019-Jul-22 15:52 045 2 gusting 7 32.8
2019-Jul-22 15:47 062 1 gusting 5 32.8
2019-Jul-22 15:42 164 1 gusting 6 32.8
2019-Jul-22 15:37 026 1 gusting 6 32.8
2019-Jul-22 15:32 089 2 gusting 6 32.8
2019-Jul-22 15:27 014 1 gusting 6 32.2
2019-Jul-22 15:22 075 1 gusting 4 32.2
2019-Jul-22 15:17 119 1 gusting 6 31.7
2019-Jul-22 15:12 075 1 gusting 6 31.7
2019-Jul-22 15:07 124 1 gusting 3 31.7
2019-Jul-22 15:02 185 1 gusting 8 31.7
2019-Jul-22 14:57 039 1 gusting 8 31.7
2019-Jul-22 14:52 112 1 gusting 3 31.7
2019-Jul-22 14:47 118 1 gusting 5 31.7
2019-Jul-22 14:42 064 1 gusting 5 31.7
2019-Jul-22 14:37 037 1 gusting 4 31.7
2019-Jul-22 14:32 047 1 gusting 3 31.7
2019-Jul-22 14:27 164 1 gusting 5 31.7
2019-Jul-22 14:22 101 1 gusting 5 31.1
2019-Jul-22 14:17 049 1 gusting 4 30.6
2019-Jul-22 14:12 020 1 gusting 7 30.6
2019-Jul-22 14:07 016 1 gusting 7 30.6
2019-Jul-22 14:02 079 1 gusting 4 30.6
2019-Jul-22 13:57 047 1 gusting 4 30.0
2019-Jul-22 13:52 072 1 gusting 3 30.0
2019-Jul-22 13:47 058 1 gusting 3 29.4
2019-Jul-22 13:42 061 2 gusting 4 29.4
2019-Jul-22 13:37 036 2 gusting 5 29.4
2019-Jul-22 13:32 28.9
2019-Jul-22 13:27 020 1 gusting 4 28.9
2019-Jul-22 13:22 010 2 gusting 6 28.3
2019-Jul-22 13:17 051 2 gusting 6 28.3
2019-Jul-22 13:12 056 2 gusting 5 27.8
2019-Jul-22 13:07 034 2 gusting 4 27.8
2019-Jul-22 13:02 120 2 gusting 6 27.2
2019-Jul-22 12:57 046 1 gusting 6 26.7
2019-Jul-22 12:52 045 1 gusting 4 26.7
2019-Jul-22 12:47 345 1 gusting 4 26.1
2019-Jul-22 12:42 341 1 gusting 6 26.1
2019-Jul-22 12:37 343 2 gusting 6 26.1
2019-Jul-22 12:32 039 1 gusting 4 26.1
2019-Jul-22 12:27 045 1 gusting 3 25.6
2019-Jul-22 12:22 045 1 gusting 3 25.6
2019-Jul-22 12:17 029 1 gusting 4 25.6
2019-Jul-22 12:12 018 0 gusting 4 25.6
2019-Jul-22 12:07 321 0 gusting 1 25.0
2019-Jul-22 12:02 321 0 gusting 1 24.4
2019-Jul-22 11:57 321 0 gusting 1 24.4
2019-Jul-22 11:52 321 0 gusting 1 24.4
2019-Jul-22 11:47 320 0 gusting 1 24.4
2019-Jul-22 11:42 320 0 gusting 2 24.4
2019-Jul-22 11:37 320 0 gusting 2 23.9
2019-Jul-22 11:32 320 23.3
2019-Jul-22 11:27 320 23.3
2019-Jul-22 11:22 320 23.3
2019-Jul-22 11:17 320 23.3
2019-Jul-22 11:12 320 23.3
2019-Jul-22 11:07 320 23.3
2019-Jul-22 11:02 320 23.3
2019-Jul-22 10:57 320 23.3
2019-Jul-22 10:52 320 23.3
2019-Jul-22 10:47 320 0 gusting 1 23.3
2019-Jul-22 10:42 320 0 gusting 1 23.3
2019-Jul-22 10:37 320 0 gusting 1 23.3
2019-Jul-22 10:32 320 0 gusting 1 23.3
2019-Jul-22 10:27 320 0 gusting 1 23.3
2019-Jul-22 10:22 320 0 gusting 1 23.3
2019-Jul-22 10:17 320 0 gusting 1 23.3
2019-Jul-22 10:12 320 0 gusting 1 23.3
2019-Jul-22 10:07 320 23.3
2019-Jul-22 10:02 320 0 gusting 0 23.3
2019-Jul-22 09:57 320 22.8
2019-Jul-22 09:52 320 22.8
2019-Jul-22 09:47 320 22.8
2019-Jul-22 09:42 320 23.3
2019-Jul-22 09:37 320 23.3
2019-Jul-22 09:32 320 23.3
2019-Jul-22 09:27 320 23.3
2019-Jul-22 09:22 320 23.3
2019-Jul-22 09:17 320 23.3
2019-Jul-22 09:12 320 23.3
2019-Jul-22 09:07 320 23.3
2019-Jul-22 09:02 320 23.3
2019-Jul-22 08:57 320 23.3
2019-Jul-22 08:52 320 23.3
2019-Jul-22 08:47 320 23.3
2019-Jul-22 08:42 320 0 gusting 1 23.3
2019-Jul-22 08:37 320 0 gusting 1 23.3
2019-Jul-22 08:32 320 0 gusting 1 23.3
2019-Jul-22 08:26 320 23.3
2019-Jul-22 08:22 320 0 gusting 1 23.3
2019-Jul-22 08:16 320 0 gusting 1 23.3
2019-Jul-22 08:11 320 0 gusting 1 23.3
2019-Jul-22 08:06 320 0 gusting 1 23.3
2019-Jul-22 08:01 287 0 gusting 1 23.3
2019-Jul-22 07:56 287 0 gusting 1 23.3
2019-Jul-22 07:51 287 23.3
2019-Jul-22 07:46 287 23.3
2019-Jul-22 07:41 287 23.3
2019-Jul-22 07:36 287 23.3
2019-Jul-22 07:31 287 23.3
2019-Jul-22 07:26 287 23.3
2019-Jul-22 07:21 287 23.3
2019-Jul-22 07:16 287 23.3
2019-Jul-22 07:11 287 23.3
2019-Jul-22 07:06 287 23.3
2019-Jul-22 07:01 287 23.3
2019-Jul-22 06:56 287 23.3
2019-Jul-22 06:52 287 23.3
2019-Jul-22 06:46 287 23.3
2019-Jul-22 06:41 287 23.3
2019-Jul-22 06:36 287 23.3
2019-Jul-22 06:31 287 23.3
2019-Jul-22 06:26 287 23.9
2019-Jul-22 06:21 287 23.9
2019-Jul-22 06:16 274 23.9
2019-Jul-22 06:11 274 23.9
2019-Jul-22 06:06 274 23.9
2019-Jul-22 06:01 274 23.9
2019-Jul-22 05:56 274 23.9
2019-Jul-22 05:51 274 0 gusting 0 23.9
2019-Jul-22 05:46 274 0 gusting 0 23.9
2019-Jul-22 05:41 274 23.9
2019-Jul-22 05:36 274 0 gusting 1 23.9
2019-Jul-22 05:31 274 23.9
2019-Jul-22 05:26 272 23.9
2019-Jul-22 05:21 272 23.9
2019-Jul-22 05:16 272 23.9
2019-Jul-22 05:11 272 23.9
2019-Jul-22 05:06 272 23.9
2019-Jul-22 05:01 272 24.4
2019-Jul-22 04:56 272 24.4
2019-Jul-22 04:51 272 24.4
2019-Jul-22 04:46 272 24.4
2019-Jul-22 04:41 272 24.4
2019-Jul-22 04:36 272 24.4
2019-Jul-22 04:31 272 24.4
2019-Jul-22 04:26 272 24.4
2019-Jul-22 04:21 272 24.4
2019-Jul-22 04:16 272 0 gusting 1 24.4
2019-Jul-22 04:11 272 0 gusting 1 24.4
2019-Jul-22 04:06 272 24.4
2019-Jul-22 04:01 272 24.4
2019-Jul-22 03:56 272 24.4
2019-Jul-22 03:51 272 24.4
2019-Jul-22 03:46 272 24.4
2019-Jul-22 03:41 272 24.4
2019-Jul-22 03:36 272 24.4
2019-Jul-22 03:31 272 24.4
2019-Jul-22 03:26 272 24.4
2019-Jul-22 03:21 272 24.4
2019-Jul-22 03:16 272 24.4
2019-Jul-22 03:11 272 24.4
2019-Jul-22 03:06 272 25.0
2019-Jul-22 03:01 272 25.0
2019-Jul-22 02:56 272 25.0
2019-Jul-22 02:51 272 0 gusting 1 25.0
2019-Jul-22 02:46 272 0 gusting 1 25.0
2019-Jul-22 02:41 272 25.0
2019-Jul-22 02:36 272 25.0
2019-Jul-22 02:31 272 25.0
2019-Jul-22 02:26 272 25.0
2019-Jul-22 02:21 272 25.0
2019-Jul-22 02:16 272 25.0
2019-Jul-22 02:11 272 25.0
2019-Jul-22 02:06 272 25.0
2019-Jul-22 02:01 272 25.0
2019-Jul-22 01:56 271 25.0
2019-Jul-22 01:51 271 0 gusting 2 25.0
2019-Jul-22 01:46 271 0 gusting 2 25.0
2019-Jul-22 01:41 203 0 gusting 2 25.0
2019-Jul-22 01:36 244 0 gusting 2 25.0
2019-Jul-22 01:31 306 0 gusting 2 25.0
2019-Jul-22 01:26 304 0 gusting 2 25.6
2019-Jul-22 01:21 296 1 gusting 6 25.6
2019-Jul-22 01:16 294 1 gusting 6 25.6
2019-Jul-22 01:11 270 0 gusting 4 25.6
2019-Jul-22 01:06 266 0 gusting 3 25.6
2019-Jul-22 01:01 291 1 gusting 4 25.6
2019-Jul-22 00:56 257 1 gusting 6 26.1
2019-Jul-22 00:51 221 1 gusting 6 26.1
2019-Jul-22 00:46 292 1 gusting 6 26.7
2019-Jul-22 00:41 232 1 gusting 6 26.7
2019-Jul-22 00:36 268 2 gusting 8 27.2
2019-Jul-22 00:31 224 2 gusting 10 27.2
2019-Jul-22 00:26 207 5 gusting 12 27.8
2019-Jul-22 00:21 224 4 gusting 12 28.3
2019-Jul-22 00:16 194 1 gusting 12 28.9
2019-Jul-22 00:11 156 0 gusting 1 28.9
2019-Jul-22 00:06 153 0 gusting 2 29.4
2019-Jul-22 00:01 152 0 gusting 2 29.4
2019-Jul-21 23:56 148 29.4
2019-Jul-21 23:51 144 0 gusting 1 29.4
2019-Jul-21 23:46 144 0 gusting 1 29.4
2019-Jul-21 23:41 143 0 gusting 1 29.4
2019-Jul-21 23:36 141 0 gusting 1 30.0
2019-Jul-21 23:31 141 0 gusting 1 30.0
2019-Jul-21 23:26 141 0 gusting 1 30.0
2019-Jul-21 23:21 140 0 gusting 1 30.0
2019-Jul-21 23:16 140 30.0
2019-Jul-21 23:11 137 0 gusting 1 30.0
2019-Jul-21 23:06 137 0 gusting 2 30.6
2019-Jul-21 23:01 137 1 gusting 3 30.6
2019-Jul-21 22:56 128 1 gusting 6 30.6
2019-Jul-21 22:51 160 1 gusting 6 30.6
2019-Jul-21 22:46 080 0 gusting 3 30.6
2019-Jul-21 22:41 102 1 gusting 5 30.6
2019-Jul-21 22:36 158 1 gusting 5 30.6
2019-Jul-21 22:31 154 1 gusting 5 30.6
2019-Jul-21 22:26 122 1 gusting 4 30.6
2019-Jul-21 22:21 176 1 gusting 5 30.6
2019-Jul-21 22:16 189 0 gusting 5 30.6
2019-Jul-21 22:11 164 1 gusting 3 30.6
2019-Jul-21 22:06 183 1 gusting 5 30.6
2019-Jul-21 22:01 151 0 gusting 5 30.6
2019-Jul-21 21:56 183 0 gusting 3 30.6
2019-Jul-21 21:51 168 0 gusting 6 30.6
2019-Jul-21 21:46 168 0 gusting 6 30.6
2019-Jul-21 21:41 185 1 gusting 6 30.6
2019-Jul-21 21:36 143 1 gusting 6 30.6
2019-Jul-21 21:31 164 1 gusting 5 30.6
2019-Jul-21 21:26 180 1 gusting 5 30.6
2019-Jul-21 21:21 126 1 gusting 6 30.6
2019-Jul-21 21:16 197 1 gusting 6 30.6
2019-Jul-21 21:11 143 1 gusting 6 30.6
2019-Jul-21 21:06 162 1 gusting 5 30.6
2019-Jul-21 21:01 189 2 gusting 8 30.6
2019-Jul-21 20:56 235 3 gusting 8 30.6
2019-Jul-21 20:51 145 2 gusting 6 30.6
2019-Jul-21 20:46 089 2 gusting 6 30.6
2019-Jul-21 20:41 109 2 gusting 5 30.6
2019-Jul-21 20:36 106 2 gusting 8 30.6
2019-Jul-21 20:31 126 3 gusting 8 31.1
2019-Jul-21 20:26 166 3 gusting 10 31.1
2019-Jul-21 20:21 173 4 gusting 10 31.7
2019-Jul-21 20:16 107 4 gusting 10 31.7
2019-Jul-21 20:11 215 4 gusting 12 32.2
2019-Jul-21 20:06 137 3 gusting 12 32.8
2019-Jul-21 20:01 107 3 gusting 8 32.8
2019-Jul-21 19:56 106 3 gusting 9 32.8
2019-Jul-21 19:51 203 3 gusting 9 32.8
2019-Jul-21 19:46 124 3 gusting 10 32.8
2019-Jul-21 19:41 298 3 gusting 10 32.8
2019-Jul-21 19:36 128 3 gusting 8 32.8
2019-Jul-21 19:31 185 3 gusting 11 33.3
2019-Jul-21 19:26 147 2 gusting 11 33.9
2019-Jul-21 19:21 195 2 gusting 8 34.4
2019-Jul-21 19:16 102 3 gusting 8 33.9
2019-Jul-21 19:11 080 3 gusting 7 33.9
2019-Jul-21 19:06 172 3 gusting 8 33.9
2019-Jul-21 19:01 132 2 gusting 8 33.9
2019-Jul-21 18:56 114 2 gusting 6 33.9
2019-Jul-21 18:51 189 3 gusting 9 33.9
2019-Jul-21 18:46 064 3 gusting 9 33.3
2019-Jul-21 18:41 197 2 gusting 6 33.9
2019-Jul-21 18:36 127 2 gusting 7 33.3
2019-Jul-21 18:31 137 3 gusting 9 33.3
2019-Jul-21 18:26 106 3 gusting 9 33.3
2019-Jul-21 18:21 151 4 gusting 12 33.3
2019-Jul-21 18:16 199 4 gusting 12 33.3
2019-Jul-21 18:11 113 3 gusting 11 33.3
2019-Jul-21 18:06 150 3 gusting 11 33.3
2019-Jul-21 18:01 155 2 gusting 11 33.3
2019-Jul-21 17:56 071 2 gusting 6 33.3
2019-Jul-21 17:51 073 2 gusting 7 33.3
2019-Jul-21 17:46 167 3 gusting 10 32.8
2019-Jul-21 17:41 158 3 gusting 10 33.3
2019-Jul-21 17:36 140 3 gusting 10 33.3
2019-Jul-21 17:31 224 3 gusting 10 32.8
2019-Jul-21 17:26 224 2 gusting 8 32.8
2019-Jul-21 17:21 33.3
2019-Jul-21 17:16 186 1 gusting 6 33.9
2019-Jul-21 17:11 114 3 gusting 10 33.9
2019-Jul-21 17:06 031 3 gusting 10 33.9
2019-Jul-21 17:01 126 2 gusting 9 33.3
2019-Jul-21 16:55 174 2 gusting 7 33.3
2019-Jul-21 16:50 090 2 gusting 6 33.3
2019-Jul-21 16:45 173 2 gusting 6 33.9
2019-Jul-21 16:40 103 2 gusting 6 33.3
2019-Jul-21 16:35 182 2 gusting 6 33.3
2019-Jul-21 16:30 159 2 gusting 6 32.8
2019-Jul-21 16:25 210 2 gusting 6 33.3
2019-Jul-21 16:20 178 2 gusting 6 32.8
2019-Jul-21 16:15 162 2 gusting 7 32.8
2019-Jul-21 16:10 160 3 gusting 9 32.8
2019-Jul-21 16:06 131 3 gusting 9 32.8
2019-Jul-21 16:01 155 3 gusting 8 32.8
2019-Jul-21 15:55 106 4 gusting 10 33.3
2019-Jul-21 15:51 131 4 gusting 10 32.8
2019-Jul-21 15:46 150 3 gusting 9 32.8
2019-Jul-21 15:41 110 3 gusting 10 32.8
2019-Jul-21 15:35 107 3 gusting 10 32.2
2019-Jul-21 15:30 154 2 gusting 7 32.2
2019-Jul-21 15:25 058 2 gusting 6 32.2
2019-Jul-21 15:20 114 2 gusting 6 32.2
2019-Jul-21 15:15 164 1 gusting 6 31.7
2019-Jul-21 15:10 162 2 gusting 8 32.2
2019-Jul-21 15:05 172 1 gusting 8 32.2
2019-Jul-21 15:00 201 1 gusting 4 32.2
2019-Jul-21 14:55 080 1 gusting 4 31.7
2019-Jul-21 14:50 033 1 gusting 3 31.7
2019-Jul-21 14:45 095 1 gusting 3 31.1
2019-Jul-21 14:40 103 0 gusting 2 30.6
2019-Jul-21 14:35 014 1 gusting 3 30.6
2019-Jul-21 14:30 016 1 gusting 4 30.0
2019-Jul-21 14:25 034 1 gusting 4 29.4
2019-Jul-21 14:20 021 1 gusting 3 29.4
2019-Jul-21 14:15 051 1 gusting 3 29.4
2019-Jul-21 14:10 045 0 gusting 3 29.4
2019-Jul-21 14:05 027 0 gusting 1 29.4
2019-Jul-21 14:00 110 0 gusting 2 29.4
2019-Jul-21 13:55 108 0 gusting 2 29.4
2019-Jul-21 13:50 103 1 gusting 3 29.4
2019-Jul-21 13:45 101 0 gusting 3 29.4
2019-Jul-21 13:40 094 1 gusting 5 29.4
2019-Jul-21 13:35 191 2 gusting 6 29.4
2019-Jul-21 13:30 206 2 gusting 6 29.4
2019-Jul-21 13:25 152 2 gusting 6 29.4
2019-Jul-21 13:20 181 2 gusting 6 30.0
2019-Jul-21 13:15 187 1 gusting 5 29.4
2019-Jul-21 13:10 187 1 gusting 6 29.4
2019-Jul-21 13:05 153 1 gusting 6 29.4
2019-Jul-21 13:00 162 1 gusting 4 29.4
2019-Jul-21 12:55 143 0 gusting 2 28.9
2019-Jul-21 12:50 141 0 gusting 4 28.3
2019-Jul-21 12:45 131 0 gusting 4 27.8
2019-Jul-21 12:40 166 0 gusting 3 27.2
2019-Jul-21 12:35 157 0 gusting 2 27.2
2019-Jul-21 12:30 174 26.7
2019-Jul-21 12:25 174 0 gusting 3 26.7
2019-Jul-21 12:20 174 0 gusting 3 26.1
2019-Jul-21 12:15 207 0 gusting 1 26.1
2019-Jul-21 12:10 105 25.6
2019-Jul-21 12:05 102 25.6
2019-Jul-21 12:00 102 25.0
2019-Jul-21 11:55 102 25.0
2019-Jul-21 11:50 102 24.4
2019-Jul-21 11:45 102 24.4
2019-Jul-21 11:40 102 24.4
2019-Jul-21 11:35 102 23.9
2019-Jul-21 11:30 102 23.9
2019-Jul-21 11:25 102 23.9
2019-Jul-21 11:20 102 23.9
2019-Jul-21 11:15 102 23.3
2019-Jul-21 11:10 185 23.3
2019-Jul-21 11:05 185 23.3
2019-Jul-21 11:00 185 23.3
2019-Jul-21 10:55 185 23.3
2019-Jul-21 10:50 185 23.3
2019-Jul-21 10:45 185 23.3
2019-Jul-21 10:40 185 23.3
2019-Jul-21 10:35 185 23.3
2019-Jul-21 10:30 185 23.3
2019-Jul-21 10:25 185 23.3
2019-Jul-21 10:20 185 23.3
2019-Jul-21 10:15 185 23.3
2019-Jul-21 10:10 185 23.3
2019-Jul-21 10:05 185 23.3
2019-Jul-21 10:00 185 23.3
2019-Jul-21 09:55 185 23.3
2019-Jul-21 09:50 185 23.3
2019-Jul-21 09:45 185 23.9
2019-Jul-21 09:40 185 23.9
2019-Jul-21 09:35 185 23.9
2019-Jul-21 09:30 185 23.9
2019-Jul-21 09:25 185 0 gusting 1 23.9
2019-Jul-21 09:20 185 0 gusting 1 23.9
2019-Jul-21 09:15 185 23.9
2019-Jul-21 09:10 185 23.9
2019-Jul-21 09:05 185 23.9
2019-Jul-21 09:00 185 23.9
2019-Jul-21 08:55 185 23.9
2019-Jul-21 08:50 185 0 gusting 2 23.9
2019-Jul-21 08:45 185 0 gusting 2 23.9
2019-Jul-21 08:40 173 23.9
2019-Jul-21 08:35 173 24.4
2019-Jul-21 08:30 173 24.4
2019-Jul-21 08:25 173 24.4
2019-Jul-21 08:20 173 24.4
2019-Jul-21 08:15 173 24.4
2019-Jul-21 08:10 173 24.4
2019-Jul-21 08:05 173 24.4
2019-Jul-21 08:00 173 24.4
2019-Jul-21 07:55 173 0 gusting 1 24.4
2019-Jul-21 07:50 173 0 gusting 1 24.4
2019-Jul-21 07:45 172 0 gusting 0 24.4
2019-Jul-21 07:40 172 0 gusting 2 24.4
2019-Jul-21 07:35 172 24.4
2019-Jul-21 07:30 172 0 gusting 2 24.4
2019-Jul-21 07:25 172 0 gusting 2 25.0
2019-Jul-21 07:20 172 0 gusting 3 25.0
2019-Jul-21 07:15 173 0 gusting 6 25.0
2019-Jul-21 07:10 167 0 gusting 6 24.4
2019-Jul-21 07:05 167 24.4
2019-Jul-21 07:00 167 24.4
2019-Jul-21 06:55 167 24.4
2019-Jul-21 06:50 167 24.4
2019-Jul-21 06:45 167 24.4
2019-Jul-21 06:40 167 24.4
2019-Jul-21 06:35 167 24.4
2019-Jul-21 06:30 167 24.4
2019-Jul-21 06:25 167 24.4
2019-Jul-21 06:20 167 24.4
2019-Jul-21 06:15 167 24.4
2019-Jul-21 06:10 167 24.4
2019-Jul-21 06:05 167 24.4
2019-Jul-21 06:00 167 24.4
2019-Jul-21 05:55 167 24.4
2019-Jul-21 05:50 167 24.4
2019-Jul-21 05:45 167 24.4
2019-Jul-21 05:40 167 24.4
2019-Jul-21 05:35 167 24.4
2019-Jul-21 05:30 167 24.4
2019-Jul-21 05:25 167 24.4
2019-Jul-21 05:20 167 24.4
2019-Jul-21 05:15 167 24.4
2019-Jul-21 05:10 167 24.4
2019-Jul-21 05:05 167 24.4
2019-Jul-21 05:00 167 24.4
2019-Jul-21 04:55 167 24.4
2019-Jul-21 04:45 167 24.4
2019-Jul-21 04:40 167 24.4
2019-Jul-21 04:35 167 24.4
2019-Jul-21 04:30 167 24.4
2019-Jul-21 04:25 167 24.4
2019-Jul-21 04:15 167 25.0
2019-Jul-21 04:10 167 25.0
2019-Jul-21 04:05 167 25.0
2019-Jul-21 04:00 167 25.0
2019-Jul-21 03:55 167 25.0
2019-Jul-21 03:50 167 25.0
2019-Jul-21 03:45 167 25.0
2019-Jul-21 03:40 167 25.0
2019-Jul-21 03:35 167 25.0
2019-Jul-21 03:30 167 25.0
2019-Jul-21 03:25 167 25.0
2019-Jul-21 03:20 167 25.0
2019-Jul-21 03:15 167 25.0
2019-Jul-21 03:10 167 25.0
2019-Jul-21 03:05 167 25.0
2019-Jul-21 03:00 167 25.6
2019-Jul-21 02:55 167 25.6
2019-Jul-21 02:50 167 25.6
2019-Jul-21 02:45 167 25.6
2019-Jul-21 02:40 167 25.6
2019-Jul-21 02:35 167 25.6
2019-Jul-21 02:30 167 25.6
2019-Jul-21 02:25 167 25.6
2019-Jul-21 02:20 167 25.6
2019-Jul-21 02:15 167 25.6
2019-Jul-21 02:10 167 25.6
2019-Jul-21 02:05 167 25.6
2019-Jul-21 02:00 167 25.6
2019-Jul-21 01:55 167 26.1
2019-Jul-21 01:50 167 26.1
2019-Jul-21 01:45 167 26.1
2019-Jul-21 01:40 167 26.1
2019-Jul-21 01:35 167 26.1
2019-Jul-21 01:30 167 26.1
2019-Jul-21 01:25 167 26.1
2019-Jul-21 01:20 167 26.7
2019-Jul-21 01:15 167 26.7
2019-Jul-21 01:10 167 26.7
2019-Jul-21 01:05 167 26.7
2019-Jul-21 01:00 167 26.7
2019-Jul-21 00:55 167 26.7
2019-Jul-21 00:50 167 26.7
2019-Jul-21 00:45 167 26.7
2019-Jul-21 00:40 167 27.2
2019-Jul-21 00:35 167 27.2
2019-Jul-21 00:30 167 27.2
2019-Jul-21 00:25 167 27.2
2019-Jul-21 00:20 167 27.2
2019-Jul-21 00:15 167 27.8
2019-Jul-21 00:10 167 27.8
2019-Jul-21 00:05 167 27.8
2019-Jul-21 00:00 167 27.8
2019-Jul-20 23:55 167 27.8
2019-Jul-20 23:50 167 27.8
2019-Jul-20 23:45 167 27.8
2019-Jul-20 23:40 167 0 gusting 3 27.8
2019-Jul-20 23:35 167 0 gusting 3 27.8
2019-Jul-20 23:30 167 0 gusting 3 27.8
2019-Jul-20 23:25 168 0 gusting 1 27.8
2019-Jul-20 23:20 168 0 gusting 3 28.3
2019-Jul-20 23:15 168 0 gusting 3 28.3
2019-Jul-20 23:09 169 1 gusting 3 28.3
2019-Jul-20 23:04 197 1 gusting 3 28.3
2019-Jul-20 23:00 190 1 gusting 3 28.3
2019-Jul-20 22:54 203 1 gusting 2 28.3
2019-Jul-20 22:49 198 1 gusting 2 28.3
2019-Jul-20 22:44 195 1 gusting 4 28.3
2019-Jul-20 22:39 195 1 gusting 4 28.3
2019-Jul-20 22:34 210 1 gusting 4 28.3
2019-Jul-20 22:29 194 1 gusting 4 28.9
2019-Jul-20 22:24 200 1 gusting 4 28.9
2019-Jul-20 22:19 206 1 gusting 4 28.9
2019-Jul-20 22:14 197 2 gusting 5 28.9
2019-Jul-20 22:09 194 2 gusting 6 29.4
2019-Jul-20 22:04 212 2 gusting 6 29.4
2019-Jul-20 21:59 229 1 gusting 6 30.0
2019-Jul-20 21:54 182 0 gusting 5 30.6
2019-Jul-20 21:49 151 30.6
2019-Jul-20 21:44 150 0 gusting 7 30.6
2019-Jul-20 21:39 150 1 gusting 7 30.6
2019-Jul-20 21:34 164 0 gusting 5 30.6
2019-Jul-20 21:29 141 1 gusting 6 30.6
2019-Jul-20 21:24 183 2 gusting 6 30.6
2019-Jul-20 21:19 155 2 gusting 6 31.1
2019-Jul-20 21:14 185 2 gusting 6 31.1
2019-Jul-20 21:09 112 1 gusting 6 31.1
2019-Jul-20 21:04 155 1 gusting 5 31.1
2019-Jul-20 20:59 170 1 gusting 5 31.1
2019-Jul-20 20:54 213 2 gusting 6 31.1
2019-Jul-20 20:49 045 2 gusting 6 31.7
2019-Jul-20 20:44 179 1 gusting 6 31.7
2019-Jul-20 20:39 118 1 gusting 6 31.1
2019-Jul-20 20:34 172 2 gusting 7 31.1
2019-Jul-20 20:29 133 2 gusting 8 31.1
2019-Jul-20 20:24 133 2 gusting 8 31.1
2019-Jul-20 20:19 198 1 gusting 6 31.1
2019-Jul-20 20:14 195 2 gusting 6 31.1
2019-Jul-20 20:09 115 2 gusting 6 31.1
2019-Jul-20 20:04 135 2 gusting 6 31.1
2019-Jul-20 19:59 197 2 gusting 6 31.1
2019-Jul-20 19:54 155 2 gusting 8 31.1
2019-Jul-20 19:49 217 2 gusting 8 31.1
2019-Jul-20 19:44 115 1 gusting 6 31.7
2019-Jul-20 19:39 162 1 gusting 6 31.7
2019-Jul-20 19:34 107 2 gusting 7 31.7
2019-Jul-20 19:29 083 2 gusting 7 31.7
2019-Jul-20 19:24 145 1 gusting 4 31.7
2019-Jul-20 19:19 135 1 gusting 3 31.7
2019-Jul-20 19:14 149 1 gusting 3 31.7
2019-Jul-20 19:09 169 1 gusting 5 31.7
2019-Jul-20 19:04 140 1 gusting 7 31.7
2019-Jul-20 18:59 137 1 gusting 7 31.7
2019-Jul-20 18:54 178 1 gusting 6 31.7
2019-Jul-20 18:49 168 1 gusting 3 31.7
2019-Jul-20 18:44 174 1 gusting 5 31.7
2019-Jul-20 18:39 164 1 gusting 5 31.7
2019-Jul-20 18:34 147 1 gusting 5 31.7
2019-Jul-20 18:29 166 1 gusting 5 32.2
2019-Jul-20 18:24 169 1 gusting 6 32.2
2019-Jul-20 18:19 286 2 gusting 6 32.8
2019-Jul-20 18:14 191 2 gusting 10 32.8
2019-Jul-20 18:09 149 2 gusting 10 32.8
2019-Jul-20 18:04 119 2 gusting 7 32.8
2019-Jul-20 17:59 103 2 gusting 7 33.3
2019-Jul-20 17:54 160 2 gusting 7 33.3
2019-Jul-20 17:49 139 2 gusting 7 32.8
2019-Jul-20 17:44 068 2 gusting 6 32.8
2019-Jul-20 17:39 155 2 gusting 9 33.3
2019-Jul-20 17:34 128 2 gusting 9 33.3
2019-Jul-20 17:29 104 2 gusting 6 32.8
2019-Jul-20 17:24 176 2 gusting 7 32.2
2019-Jul-20 17:19 171 2 gusting 7 32.2
2019-Jul-20 17:14 141 2 gusting 7 32.2
2019-Jul-20 17:09 172 1 gusting 6 31.7
2019-Jul-20 17:04 216 1 gusting 4 31.7
2019-Jul-20 16:59 235 0 gusting 4 31.1
2019-Jul-20 16:54 162 0 gusting 3 30.0
2019-Jul-20 16:49 216 0 gusting 2 29.4
2019-Jul-20 16:44 305 1 gusting 3 28.9
2019-Jul-20 16:39 315 1 gusting 4 28.9
2019-Jul-20 16:34 220 1 gusting 4 28.9
2019-Jul-20 16:29 243 0 gusting 4 28.3
2019-Jul-20 16:24 243 0 gusting 3 28.3
2019-Jul-20 16:19 205 1 gusting 3 28.3
2019-Jul-20 16:14 202 2 gusting 6 28.3
2019-Jul-20 16:09 212 4 gusting 8 28.3
2019-Jul-20 16:04 196 4 gusting 8 29.4